Location: Unspecified
(42.9300°N, 71.1866°W)
Time: 05:21:03
(UTC-04:00)

Envisat - Visible Passes

Search period start: 25 May 2015 00:00
Search period end: 04 June 2015 00:00
Orbit: 765 x 766 km, 98.3° (Epoch: 24 May)

Date Brightness Start Highest point End Pass type
(mag) Time Alt. Az. Time Alt. Az. Time Alt. Az.
25 May 4.2 20:47:09 10° ESE 20:51:21 28° ENE 20:55:40 10° N visible
25 May 4.1 22:26:45 17° SSW 22:30:15 37° W 22:34:58 10° NNW visible
26 May 3.0 21:49:38 18° S 21:53:31 82° WSW 21:58:38 10° NNW visible
27 May 3.5 21:12:32 12° SE 21:16:58 46° ENE 21:21:50 10° N visible
27 May 4.9 22:52:44 12° SW 22:56:16 22° W 23:00:06 10° NW visible
28 May 3.8 22:15:37 17° SSW 22:19:21 47° W 22:24:15 10° NNW visible
29 May 3.0 21:38:30 15° SSE 21:42:40 80° ENE 21:47:47 10° N visible
29 May 5.5 23:20:15 10° WSW 23:22:26 12° W 23:24:19 10° WNW visible
30 May 3.8 21:01:34 10° SE 21:06:10 37° ENE 21:10:51 10° N visible
30 May 4.6 22:41:36 13° SSW 22:45:18 27° W 22:49:35 10° NW visible
31 May 3.4 22:04:30 16° S 22:08:28 59° W 22:13:30 10° NNW visible
01 Jun 3.1 21:27:23 13° SSE 21:31:51 64° ENE 21:36:53 10° N visible
01 Jun 5.3 23:08:17 10° SW 23:11:24 16° W 23:14:19 10° NW visible
02 Jun 4.0 20:51:02 10° SE 20:55:23 30° ENE 20:59:49 10° N visible
02 Jun 4.3 22:30:29 14° SSW 22:34:22 34° W 22:38:57 10° NNW visible
03 Jun 3.1 21:53:23 15° S 21:57:35 75° WSW 22:02:42 10° NNW visible
